FW4758 Weather Reports


Display with metric or nautical units.
time (UTC)temp
F
wind
direction
speed
MPH
gust
MPH
rain 1hr
in
rain 24hr
in
rain mn
in
humidity
%
barometer
mb
20260901204521 98 117 6.0 13.0 0.00 0.00 0.00 38 1011.7
20260901203018 98 222 4.0 13.0 0.00 0.00 0.00 39 1011.8
20260901201511 97 88 8.0 15.0 0.00 0.00 0.00 39 1012.1
20260901200011 97 90 3.0 8.0 0.00 0.00 0.00 40 1012.1
20260901194508 97 104 8.0 11.0 0.00 0.00 0.00 41 1012.2
20260901193007 95 67 7.0 13.0 0.00 0.00 0.00 42 1012.4
20260901191506 97 117 5.0 12.0 0.00 0.00 0.00 38 1012.7
20260901190005 97 169 3.0 23.0 0.00 0.00 0.00 40 1012.8
20260901184508 96 119 5.0 11.0 0.00 0.00 0.00 42 1013.1
20260901183002 96 126 9.0 14.0 0.00 0.00 0.00 41 1013.4
20260901181506 95 225 3.0 10.0 0.00 0.00 0.00 42 1013.7
20260901180100 95 98 3.0 10.0 0.00 0.00 0.00 45 1013.9
20260901174559 93 116 3.0 7.0 0.00 0.00 0.00 48 1014.0
20260901173058 95 121 8.0 11.0 0.00 0.00 0.00 45 1014.3
20260901171557 93 134 7.0 11.0 0.00 0.00 0.00 47 1014.5
20260901170116 93 136 7.0 14.0 0.00 0.00 0.00 46 1014.6
20260901164553 93 120 6.0 12.0 0.00 0.00 0.00 47 1014.8
20260901163051 92 97 4.0 10.0 0.00 0.00 0.00 48 1014.9
20260901161556 92 132 3.0 13.0 0.00 0.00 0.00 49 1015.0
20260901160053 91 139 5.0 9.0 0.00 0.00 0.00 51 1014.9
20260901154547 90 196 3.0 9.0 0.00 0.00 0.00 52 1014.9
20260901153042 90 166 4.0 10.0 0.00 0.00 0.00 52 1014.9
20260901151539 89 194 6.0 8.0 0.00 0.00 0.00 54 1014.8
20260901150053 87 194 3.0 7.0 0.00 0.00 0.00 57 1014.9
20260901144537 86 170 5.0 8.0 0.00 0.00 0.00 59 1015.0
20260901143030 85 220 4.0 7.0 0.00 0.00 0.00 61 1015.1
20260901141527 84 190 3.0 8.0 0.00 0.00 0.00 64 1015.1
20260901140024 83 176 2.0 5.0 0.00 0.00 0.00 68 1015.1
20260901134520 82 169 4.0 7.0 0.00 0.00 0.00 69 1015.1
20260901133019 81 142 4.0 8.0 0.00 0.00 0.00 71 1015.0
20260901131522 80 135 3.0 5.0 0.00 0.00 0.00 73 1014.9
20260901130018 78 111 3.0 5.0 0.00 0.00 0.00 75 1014.8
20260901124516 76 115 2.0 4.0 0.00 0.00 0.00 77 1014.6
20260901123028 76 211 0.0 1.0 0.00 0.00 0.00 77 1014.4
20260901121511 76 175 0.0 3.0 0.00 0.00 0.00 76 1014.2
20260901120012 76 169 1.0 5.0 0.00 0.00 0.00 76 1014.1
20260901114527 76 190 0.0 3.0 0.00 0.00 0.00 75 1013.9
20260901113014 77 211 1.0 3.0 0.00 0.00 0.00 75 1013.9
20260901111505 77 213 2.0 5.0 0.00 0.00 0.00 73 1013.8
20260901110002 78 227 1.0 6.0 0.00 0.00 0.00 72 1013.7
20260901104600 79 198 3.0 6.0 0.00 0.00 0.00 71 1013.6
20260901103058 79 230 3.0 8.0 0.00 0.00 0.00 70 1013.6
20260901101557 79 360 5.0 10.0 0.00 0.00 0.00 70 1013.6
20260901100057 79 182 4.0 9.0 0.00 0.00 0.00 70 1013.6
20260901094555 79 239 4.0 7.0 0.00 0.00 0.00 70 1013.6
20260901093052 80 182 4.0 7.0 0.00 0.00 0.00 69 1013.8
20260901091551 80 169 4.0 7.0 0.00 0.00 0.00 68 1013.8
20260901090049 80 158 5.0 10.0 0.00 0.00 0.00 67 1013.9
20260901084558 81 360 5.0 9.0 0.00 0.00 0.00 65 1013.8
20260901083047 81 360 3.0 7.0 0.00 0.00 0.00 64 1013.8
20260901081546 82 196 7.0 12.0 0.00 0.00 0.00 63 1013.7
20260901080052 82 157 6.0 12.0 0.00 0.00 0.00 62 1013.5
20260901074555 80 174 5.0 10.0 0.00 0.00 0.00 62 1013.5
20260901073041 80 165 3.0 7.0 0.00 0.00 0.00 58 1013.5
20260901071545 80 146 5.0 8.0 0.00 0.00 0.00 56 1013.6
20260901070040 81 128 4.0 7.0 0.00 0.00 0.00 54 1013.4
20260901064542 81 109 3.0 5.0 0.00 0.00 0.00 53 1013.2
20260901063032 82 119 3.0 6.0 0.00 0.00 0.00 52 1013.2
20260901061530 82 138 4.0 7.0 0.00 0.00 0.00 51 1013.1
20260901060028 83 98 4.0 8.0 0.00 0.00 0.00 50 1012.9
20260901054527 83 360 3.0 5.0 0.00 0.00 0.00 49 1012.7
20260901053025 83 122 3.0 5.0 0.00 0.00 0.00 50 1012.6
20260901051523 83 125 2.0 5.0 0.00 0.00 0.00 50 1012.5
20260901050024 83 122 4.0 7.0 0.00 0.00 0.00 50 1012.4
20260901044529 83 360 3.0 6.0 0.00 0.00 0.00 50 1012.5
20260901043025 84 360 3.0 6.0 0.00 0.00 0.00 50 1012.4
20260901041520 84 112 3.0 5.0 0.00 0.00 0.00 50 1012.5
20260901040020 84 360 3.0 5.0 0.00 0.00 0.00 49 1012.5
20260901034533 85 128 2.0 5.0 0.00 0.00 0.00 48 1012.6
20260901033018 86 132 3.0 7.0 0.00 0.00 0.00 47 1012.5
20260901031519 86 360 2.0 5.0 0.00 0.00 0.00 46 1012.5
20260901030018 87 140 3.0 5.0 0.00 0.00 0.00 45 1012.4
20260901024518 87 110 2.0 4.0 0.00 0.00 0.00 45 1012.2
20260901023017 88 360 2.0 4.0 0.00 0.00 0.00 44 1012.0
20260901021521 88 112 2.0 5.0 0.00 0.00 0.00 43 1012.0
20260901020021 89 149 2.0 5.0 0.00 0.00 0.00 42 1011.8
20260901014616 90 115 3.0 5.0 0.00 0.00 0.00 41 1011.5
20260901013015 91 121 3.0 7.0 0.00 0.00 0.00 40 1011.4
20260901011516 91 118 6.0 8.0 0.00 0.00 0.00 39 1011.3
20260901010015 92 113 3.0 7.0 0.00 0.00 0.00 39 1011.3
20260901004515 93 109 5.0 11.0 0.00 0.00 0.00 37 1011.4
20260901003022 94 120 7.0 13.0 0.00 0.00 0.00 36 1011.3
20260901001518 94 360 8.0 13.0 0.00 0.00 0.00 35 1011.2
20260901000013 95 119 6.0 13.0 0.00 0.00 0.00 35 1011.2
20260831234513 96 120 8.0 11.0 0.00 0.00 0.00 33 1011.3
20260831233012 95 150 4.0 10.0 0.00 0.00 0.00 33 1011.2
20260831231512 96 111 7.0 12.0 0.00 0.00 0.00 32 1011.1
20260831230012 97 360 6.0 12.0 0.00 0.00 0.00 33 1011.1
20260831224510 97 360 8.0 14.0 0.00 0.00 0.00 31 1011.2
20260831223010 98 111 8.0 13.0 0.00 0.00 0.00 31 1011.2
20260831221521 97 138 2.0 8.0 0.00 0.00 0.00 32 1011.3
20260831220008 96 360 6.0 10.0 0.00 0.00 0.00 33 1011.5
20260831214505 96 133 7.0 16.0 0.00 0.00 0.00 32 1011.7
20260831213004 96 172 7.0 14.0 0.00 0.00 0.00 34 1011.9
20260831211503 96 360 7.0 15.0 0.00 0.00 0.00 33 1012.0
20260831210001 97 130 5.0 16.0 0.00 0.00 0.00 33 1012.1